Terminal Aerodrome Forecast
Issued by NWS Wilmington, OH

Current Version | Previous Version | Graphics & Text | Print | Product List | Glossary On
Versions: 1 2 3 4 5 6 7 8 9 10 11 12 13 14 15 16 17 18 19 20 21 22 23 24 25 26
000
FTUS41 KILN 290900 AAB
TAFDAY
TAF AMD
KDAY 290916Z 2909/3006 16012KT 5SM -SHRA OVC040
      TEMPO 2910/2913 2SM -SHRA BKN025
     FM291400 17012G22KT P6SM VCSH BKN035
     FM291700 18012G22KT P6SM VCTS BKN040CB
     FM292300 21010KT P6SM VCSH BKN035
     FM300200 23008KT P6SM BKN035=

USA.gov is the U.S. government's official web portal to all federal, state and local government web resources and services.